Weather History for CWEU - January, 2013

Change the Weather History Date:

Wednesday, January 2, 2013

  Actual Average Record
Temperature  
Mean Temperature -34 °F -  
Max Temperature -27 °F -28 °F 1 °F (2009)
Min Temperature -42 °F -41 °F -49 °F (2014)
Degree Days  
Heating Degree Days 100    
Moisture  
Dew Point -37 °F    
Average Humidity 62    
Maximum Humidity 69    
Minimum Humidity 36    
Precipitation  
Precipitation 0.00 in 0.00 in - ()
Sea Level Pressure  
Sea Level Pressure 29.68 in    
Wind  
Wind Speed 5 mph ()    
Max Wind Speed 10 mph    
Max Gust Speed -    
Visibility 15.0 miles    
Events Snow    
Averages and records for this station are not official NWS values.
T = Trace of Precipitation, MM = Missing Value Source: Averaged Metar Reports

Daily Weather History Graph

Daily Weather History Graph

Search for Another Location

Airport or City:

Trip Planner

Search our weather history database for the weather conditions in past years. The results will help you decide how hot, cold, wet, or windy it might be!

Date:

Astronomy

Dec. 31, 1969 Rise Set
Actual Time Sun does not set Sun does not set
Civil Twilight Sun does not set Sun does not set
Nautical Twilight 11:15 AM CST 12:20 PM CST
Astronomical Twilight 7:37 AM CST 3:59 PM CST
Moon 9:59 PM CST 10:33 AM CST
Length of Visible Light 0h 00m
Length of Day
0h 00m
Waning Gibbous, 75% of the Moon is Illuminated
Jan 2
Waning Gibbous
Jan 4
Last Quarter
Jan 11
New
Jan 18
First Quarter
Jan 26
Full

Hourly Weather History & Observations

Time (CST) Temp. Windchill Dew Point Humidity Pressure Visibility Wind Dir Wind Speed Gust Speed Precip Events Conditions
12:00 AM -21 °F - -29 °F 49% 29.70 in 15 mi NW 2.3 mph - - Snow Snow
12:00 AM -20.2 °F - -29.2 °F 63% 29.70 in 15.0 mi NNW 2.3 mph - N/A   Overcast
1:00 AM -22.0 °F - -29.2 °F 69% 29.70 in 15.0 mi SSE 2.3 mph - N/A   Overcast
2:00 AM -20.2 °F -33.5 °F -27.4 °F 69% 29.69 in 15.0 mi SSE 4.6 mph - N/A   Overcast
3:00 AM -22.0 °F -39.4 °F -31.0 °F 63% 29.68 in 15.0 mi SE 6.9 mph - N/A   Partly Cloudy
4:00 AM -25.6 °F -45.4 °F -34.6 °F 63% 29.68 in 15.0 mi SE 8.1 mph - N/A   Clear
5:00 AM -27.4 °F -45.9 °F -34.6 °F 69% 29.67 in 15.0 mi SE 6.9 mph - N/A   Clear
6:00 AM -28 °F - -36 °F 46% 29.66 in 15 mi SE 6.9 mph - - Snow Snow
6:00 AM -27.4 °F -45.9 °F -36.4 °F 62% 29.66 in 15.0 mi SE 6.9 mph - N/A   Clear
7:00 AM -29.2 °F -49.7 °F -36.4 °F 68% 29.65 in 15.0 mi SE 8.1 mph - N/A   Clear
8:00 AM -27.4 °F -49.0 °F -36.4 °F 62% 29.65 in 15.0 mi SE 9.2 mph - N/A   Clear
9:00 AM -29.2 °F -49.7 °F -36.4 °F 68% 29.66 in 15.0 mi SE 8.1 mph - N/A   Clear
10:00 AM -29.2 °F -51.2 °F -40.0 °F 56% 29.66 in 15.0 mi SE 9.2 mph - N/A   Clear
11:00 AM -29.2 °F -51.2 °F -36.4 °F 68% 29.65 in 15.0 mi SE 9.2 mph - N/A   Clear
12:00 PM -31 °F - -39 °F 49% 29.65 in 15 mi SE 9.2 mph - - Snow Snow
12:00 PM -31.0 °F -54.7 °F -38.2 °F 68% 29.65 in 15.0 mi SE 10.4 mph - N/A   Partly Cloudy
1:00 PM -31.0 °F -53.4 °F -40.0 °F 62% 29.65 in 15.0 mi SE 9.2 mph - N/A   Partly Cloudy
2:00 PM -31.0 °F -50.3 °F -40.0 °F 62% 29.66 in 15.0 mi SE 6.9 mph - N/A   Partly Cloudy
3:00 PM -31.0 °F -50.3 °F -40.0 °F 62% 29.66 in 15.0 mi SE 6.9 mph - N/A   Partly Cloudy
4:00 PM -31.0 °F -50.3 °F -40.0 °F 62% 29.68 in 15.0 mi SE 6.9 mph - N/A   Clear
5:00 PM -31.0 °F -48.4 °F -38.2 °F 68% 29.69 in 15.0 mi ESE 5.8 mph - N/A   Clear
6:00 PM -33 °F - -43 °F 36% 29.70 in 15 mi SE 5.8 mph - - Snow Snow
6:00 PM -32.8 °F -50.5 °F -43.6 °F 56% 29.70 in 15.0 mi SE 5.8 mph - N/A   Clear
7:00 PM -32.8 °F -50.5 °F -40.0 °F 68% 29.73 in 15.0 mi SE 5.8 mph - N/A   Clear
8:00 PM -32.8 °F -50.5 °F -40.0 °F 68% 29.74 in 15.0 mi ESE 5.8 mph - N/A   Clear
9:00 PM -36.4 °F - -43.6 °F 67% 29.76 in 15.0 mi Calm Calm - N/A   Clear